Time,TemperatureF,DewpointF,PressureIn,WindDirection,WindDirectionDegrees,WindSpeedMPH,WindSpeedGustMPH,Humidity,HourlyPrecipIn,Conditions,Clouds,dailyrainin,SoftwareType,DateUTC
2013-01-06 00:14:00,20.3,19.8,30.55,East,90,0.0,-999.0,98,-99.99,,,0.00,Acu-Link.com,2013-01-06 05:14:00,
2013-01-06 00:29:00,20.5,20.0,30.55,ENE,67,0.0,-999.0,98,-99.99,,,0.00,Acu-Link.com,2013-01-06 05:29:00,
2013-01-06 00:44:00,20.8,20.4,30.54,East,90,0.0,-999.0,98,-99.99,,,0.00,Acu-Link.com,2013-01-06 05:44:00,
2013-01-06 01:00:00,21.4,20.9,30.55,ESE,112,0.0,-999.0,98,-99.99,,,0.00,Acu-Link.com,2013-01-06 06:00:00,
2013-01-06 01:15:00,21.7,21.3,30.56,SSW,202,0.0,-999.0,98,-99.99,,,0.00,Acu-Link.com,2013-01-06 06:15:00,
2013-01-06 01:30:00,22.1,21.6,30.56,ESE,112,0.0,-999.0,98,-99.99,,,0.00,Acu-Link.com,2013-01-06 06:30:00,
2013-01-06 01:45:00,22.5,22.0,30.56,NW,315,1.6,-999.0,98,-99.99,,,0.00,Acu-Link.com,2013-01-06 06:45:00,
2013-01-06 02:00:00,23.0,22.3,30.55,ESE,112,0.0,-999.0,97,-99.99,,,0.00,Acu-Link.com,2013-01-06 07:00:00,
2013-01-06 02:16:00,23.0,22.3,30.56,ESE,112,0.0,-999.0,97,-99.99,,,0.00,Acu-Link.com,2013-01-06 07:16:00,
2013-01-06 02:31:00,23.2,22.0,30.56,ESE,112,0.0,-999.0,95,-99.99,,,0.00,Acu-Link.com,2013-01-06 07:31:00,
2013-01-06 02:46:00,24.1,22.9,30.52,WSW,247,0.0,-999.0,95,-99.99,,,0.00,Acu-Link.com,2013-01-06 07:46:00,
2013-01-06 03:01:00,24.1,23.1,30.53,SW,225,0.0,-999.0,96,-99.99,,,0.00,Acu-Link.com,2013-01-06 08:01:00,
2013-01-06 03:17:00,24.4,23.0,30.52,West,270,1.1,-999.0,94,-99.99,,,0.00,Acu-Link.com,2013-01-06 08:17:00,
2013-01-06 03:32:00,24.8,23.3,30.51,NW,315,2.2,-999.0,94,-99.99,,,0.00,Acu-Link.com,2013-01-06 08:32:00,
2013-01-06 03:47:00,25.0,23.5,30.50,SSE,157,0.0,-999.0,94,-99.99,,,0.00,Acu-Link.com,2013-01-06 08:47:00,
2013-01-06 04:09:00,25.0,24.0,30.50,WNW,292,0.0,-999.0,96,-99.99,,,0.00,Acu-Link.com,2013-01-06 09:09:00,
2013-01-06 04:24:00,25.0,24.5,30.49,East,90,1.1,-999.0,98,-99.99,,,0.00,Acu-Link.com,2013-01-06 09:24:00,
2013-01-06 04:39:00,25.0,24.5,30.47,NE,45,0.0,-999.0,98,-99.99,,,0.00,Acu-Link.com,2013-01-06 09:39:00,
2013-01-06 04:54:00,25.0,24.5,30.46,WNW,292,0.0,-999.0,98,-99.99,,,0.00,Acu-Link.com,2013-01-06 09:54:00,
2013-01-06 05:09:00,25.2,24.7,30.44,West,270,1.1,-999.0,98,-99.99,,,0.00,Acu-Link.com,2013-01-06 10:09:00,
2013-01-06 05:25:00,25.3,24.9,30.45,WNW,292,0.0,-999.0,98,-99.99,,,0.00,Acu-Link.com,2013-01-06 10:25:00,
2013-01-06 05:40:00,25.9,25.4,30.44,West,270,1.6,-999.0,98,-99.99,,,0.00,Acu-Link.com,2013-01-06 10:40:00,
2013-01-06 05:55:00,26.2,25.8,30.44,West,270,2.2,-999.0,98,-99.99,,,0.00,Acu-Link.com,2013-01-06 10:55:00,
2013-01-06 06:10:00,26.2,25.8,30.44,West,270,3.1,-999.0,98,-99.99,,,0.00,Acu-Link.com,2013-01-06 11:10:00,
2013-01-06 06:25:00,26.2,25.8,30.45,SW,225,2.7,-999.0,98,-99.99,,,0.00,Acu-Link.com,2013-01-06 11:25:00,
2013-01-06 06:40:00,25.9,25.4,30.44,WNW,292,1.6,-999.0,98,-99.99,,,0.00,Acu-Link.com,2013-01-06 11:40:00,
2013-01-06 06:56:00,25.5,25.0,30.43,WNW,292,2.7,-999.0,98,-99.99,,,0.00,Acu-Link.com,2013-01-06 11:56:00,
2013-01-06 07:11:00,25.0,24.5,30.44,WSW,247,1.1,-999.0,98,-99.99,,,0.00,Acu-Link.com,2013-01-06 12:11:00,
2013-01-06 07:26:00,25.2,24.7,30.43,SSW,202,2.7,-999.0,98,-99.99,,,0.00,Acu-Link.com,2013-01-06 12:26:00,
2013-01-06 07:41:00,25.5,25.0,30.43,WNW,292,2.2,-999.0,98,-99.99,,,0.00,Acu-Link.com,2013-01-06 12:41:00,
2013-01-06 07:56:00,25.7,25.2,30.43,West,270,4.3,-999.0,98,-99.99,,,0.00,Acu-Link.com,2013-01-06 12:56:00,
2013-01-06 08:12:00,26.8,26.3,30.42,West,270,2.7,-999.0,98,-99.99,,,0.00,Acu-Link.com,2013-01-06 13:12:00,
2013-01-06 08:27:00,27.0,26.0,30.42,West,270,2.2,-999.0,96,-99.99,,,0.00,Acu-Link.com,2013-01-06 13:27:00,
2013-01-06 08:42:00,27.5,26.3,30.42,WSW,247,2.7,-999.0,95,-99.99,,,0.00,Acu-Link.com,2013-01-06 13:42:00,
2013-01-06 08:57:00,28.6,26.6,30.42,WNW,292,6.7,-999.0,92,-99.99,,,0.00,Acu-Link.com,2013-01-06 13:57:00,
2013-01-06 09:12:00,30.7,27.6,30.42,SW,225,5.8,-999.0,88,-99.99,,,0.00,Acu-Link.com,2013-01-06 14:12:00,
2013-01-06 09:28:00,32.0,28.3,30.41,SW,225,7.4,-999.0,86,-99.99,,,0.00,Acu-Link.com,2013-01-06 14:28:00,
2013-01-06 09:43:00,32.5,28.3,30.41,WSW,247,4.7,-999.0,84,-99.99,,,0.00,Acu-Link.com,2013-01-06 14:43:00,
2013-01-06 09:58:00,34.0,29.7,30.41,SW,225,9.4,-999.0,84,-99.99,,,0.00,Acu-Link.com,2013-01-06 14:58:00,
2013-01-06 10:13:00,34.7,30.1,30.40,SW,225,3.1,-999.0,83,-99.99,,,0.00,Acu-Link.com,2013-01-06 15:13:00,
2013-01-06 10:28:00,35.8,30.8,30.39,West,270,9.4,-999.0,82,-99.99,,,0.00,Acu-Link.com,2013-01-06 15:28:00,
2013-01-06 10:44:00,36.3,31.1,30.39,West,270,9.8,-999.0,81,-99.99,,,0.00,Acu-Link.com,2013-01-06 15:44:00,
2013-01-06 10:59:00,37.2,31.0,30.38,NW,315,7.8,-999.0,78,-99.99,,,0.00,Acu-Link.com,2013-01-06 15:59:00,
2013-01-06 11:14:00,37.0,30.8,30.38,West,270,3.1,-999.0,78,-99.99,,,0.00,Acu-Link.com,2013-01-06 16:14:00,
2013-01-06 11:29:00,38.1,31.2,30.36,SW,225,3.8,-999.0,76,-99.99,,,0.00,Acu-Link.com,2013-01-06 16:29:00,
2013-01-06 11:45:00,38.5,31.9,30.35,SW,225,5.1,-999.0,77,-99.99,,,0.00,Acu-Link.com,2013-01-06 16:45:00,
2013-01-06 12:00:00,39.9,32.3,30.34,WSW,247,4.7,-999.0,74,-99.99,,,0.00,Acu-Link.com,2013-01-06 17:00:00,
2013-01-06 12:15:00,41.2,32.9,30.33,West,270,3.8,-999.0,72,-99.99,,,0.00,Acu-Link.com,2013-01-06 17:15:00,
2013-01-06 12:30:00,40.5,32.2,30.32,WSW,247,11.9,-999.0,72,-99.99,,,0.00,Acu-Link.com,2013-01-06 17:30:00,
2013-01-06 12:45:00,41.0,32.7,30.32,West,270,4.3,-999.0,72,-99.99,,,0.00,Acu-Link.com,2013-01-06 17:45:00,
2013-01-06 13:01:00,41.4,32.7,30.31,WSW,247,2.2,-999.0,71,-99.99,,,0.00,Acu-Link.com,2013-01-06 18:01:00,
2013-01-06 13:16:00,41.9,32.8,30.31,WNW,292,6.3,-999.0,70,-99.99,,,0.00,Acu-Link.com,2013-01-06 18:16:00,
2013-01-06 13:31:00,42.3,32.8,30.31,NW,315,5.1,-999.0,69,-99.99,,,0.00,Acu-Link.com,2013-01-06 18:31:00,
2013-01-06 13:46:00,42.8,33.0,30.30,NW,315,6.3,-999.0,68,-99.99,,,0.00,Acu-Link.com,2013-01-06 18:46:00,
2013-01-06 14:01:00,42.4,33.0,30.31,SW,225,2.2,-999.0,69,-99.99,,,0.00,Acu-Link.com,2013-01-06 19:01:00,
2013-01-06 14:17:00,42.6,33.2,30.30,WSW,247,6.7,-999.0,69,-99.99,,,0.00,Acu-Link.com,2013-01-06 19:17:00,
2013-01-06 14:32:00,42.3,33.2,30.30,WNW,292,6.3,-999.0,70,-99.99,,,0.00,Acu-Link.com,2013-01-06 19:32:00,
2013-01-06 14:47:00,42.4,33.4,30.29,West,270,1.6,-999.0,70,-99.99,,,0.00,Acu-Link.com,2013-01-06 19:47:00,
2013-01-06 15:17:00,41.9,33.2,30.30,WNW,292,5.8,-999.0,71,-99.99,,,0.00,Acu-Link.com,2013-01-06 20:17:00,
2013-01-06 15:33:00,41.5,32.8,30.30,WSW,247,5.8,-999.0,71,-99.99,,,0.00,Acu-Link.com,2013-01-06 20:33:00,
2013-01-06 16:03:00,40.6,33.0,30.30,West,270,5.1,-999.0,74,-99.99,,,0.00,Acu-Link.com,2013-01-06 21:03:00,
2013-01-06 16:18:00,39.4,32.1,30.30,West,270,2.7,-999.0,75,-99.99,,,0.00,Acu-Link.com,2013-01-06 21:18:00,
2013-01-06 16:34:00,37.9,31.4,30.30,West,270,1.6,-999.0,77,-99.99,,,0.00,Acu-Link.com,2013-01-06 21:34:00,
2013-01-06 16:49:00,34.9,30.5,30.30,NW,315,2.2,-999.0,84,-99.99,,,0.00,Acu-Link.com,2013-01-06 21:49:00,
2013-01-06 17:04:00,32.2,29.9,30.30,WNW,292,0.0,-999.0,91,-99.99,,,0.00,Acu-Link.com,2013-01-06 22:04:00,
2013-01-06 17:19:00,30.2,28.7,30.31,NNE,22,0.0,-999.0,94,-99.99,,,0.00,Acu-Link.com,2013-01-06 22:19:00,
2013-01-06 17:34:00,28.8,27.8,30.31,WNW,292,0.0,-999.0,96,-99.99,,,0.00,Acu-Link.com,2013-01-06 22:34:00,
2013-01-06 17:50:00,27.7,27.2,30.32,NW,315,0.0,-999.0,98,-99.99,,,0.00,Acu-Link.com,2013-01-06 22:50:00,
2013-01-06 18:05:00,27.0,26.5,30.32,NW,315,0.0,-999.0,98,-99.99,,,0.00,Acu-Link.com,2013-01-06 23:05:00,
2013-01-06 18:20:00,26.6,26.1,30.32,WNW,292,0.0,-999.0,98,-99.99,,,0.00,Acu-Link.com,2013-01-06 23:20:00,
2013-01-06 18:35:00,26.1,25.6,30.32,East,90,0.0,-999.0,98,-99.99,,,0.00,Acu-Link.com,2013-01-06 23:35:00,
2013-01-06 18:50:00,25.9,25.4,30.32,WNW,292,0.0,-999.0,98,-99.99,,,0.00,Acu-Link.com,2013-01-06 23:50:00,
2013-01-06 19:06:00,25.2,24.7,30.33,WNW,292,0.0,-999.0,98,-99.99,,,0.00,Acu-Link.com,2013-01-07 00:06:00,
2013-01-06 19:21:00,25.2,24.7,30.33,West,270,0.0,-999.0,98,-99.99,,,0.00,Acu-Link.com,2013-01-07 00:21:00,
2013-01-06 19:36:00,24.4,24.0,30.33,NNW,337,1.6,-999.0,98,-99.99,,,0.00,Acu-Link.com,2013-01-07 00:36:00,
2013-01-06 19:51:00,24.1,23.6,30.33,NNW,337,0.0,-999.0,98,-99.99,,,0.00,Acu-Link.com,2013-01-07 00:51:00,
2013-01-06 20:06:00,24.1,23.6,30.33,WNW,292,2.7,-999.0,98,-99.99,,,0.00,Acu-Link.com,2013-01-07 01:06:00,
2013-01-06 20:22:00,23.7,23.2,30.33,West,270,0.0,-999.0,98,-99.99,,,0.00,Acu-Link.com,2013-01-07 01:22:00,
2013-01-06 20:37:00,23.2,22.7,30.33,SSE,157,0.0,-999.0,98,-99.99,,,0.00,Acu-Link.com,2013-01-07 01:37:00,
2013-01-06 20:52:00,22.3,21.8,30.33,West,270,0.0,-999.0,98,-99.99,,,0.00,Acu-Link.com,2013-01-07 01:52:00,
2013-01-06 21:07:00,22.5,22.0,30.33,North,0,0.0,-999.0,98,-99.99,,,0.00,Acu-Link.com,2013-01-07 02:07:00,
2013-01-06 21:23:00,22.5,22.0,30.33,West,270,2.2,-999.0,98,-99.99,,,0.00,Acu-Link.com,2013-01-07 02:23:00,
2013-01-06 21:38:00,22.5,22.0,30.34,West,270,1.1,-999.0,98,-99.99,,,0.00,Acu-Link.com,2013-01-07 02:38:00,
2013-01-06 21:53:00,22.1,21.6,30.34,NW,315,0.0,-999.0,98,-99.99,,,0.00,Acu-Link.com,2013-01-07 02:53:00,
2013-01-06 22:08:00,21.9,21.4,30.35,WNW,292,1.1,-999.0,98,-99.99,,,0.00,Acu-Link.com,2013-01-07 03:08:00,
2013-01-06 22:23:00,21.9,21.4,30.35,NW,315,2.2,-999.0,98,-99.99,,,0.00,Acu-Link.com,2013-01-07 03:23:00,
2013-01-06 22:39:00,22.1,21.6,30.35,NNE,22,0.0,-999.0,98,-99.99,,,0.00,Acu-Link.com,2013-01-07 03:39:00,
2013-01-06 22:54:00,21.6,21.1,30.36,WNW,292,0.0,-999.0,98,-99.99,,,0.00,Acu-Link.com,2013-01-07 03:54:00,
2013-01-06 23:09:00,21.2,20.7,30.36,WNW,292,1.1,-999.0,98,-99.99,,,0.00,Acu-Link.com,2013-01-07 04:09:00,
2013-01-06 23:24:00,20.8,20.4,30.35,SSE,157,0.0,-999.0,98,-99.99,,,0.00,Acu-Link.com,2013-01-07 04:24:00,
2013-01-06 23:39:00,20.7,20.2,30.36,West,270,2.2,-999.0,98,-99.99,,,0.00,Acu-Link.com,2013-01-07 04:39:00,
2013-01-06 23:55:00,20.7,20.2,30.36,NW,315,2.2,-999.0,98,-99.99,,,0.00,Acu-Link.com,2013-01-07 04:55:00,